Year,Month,Day,Hour,Minute,Value (Times are PST for temperature in C)
2006,12,15,00,00,5.50
2006,12,15,00,01,5.50
2006,12,15,00,02,5.50
2006,12,15,00,03,5.60
2006,12,15,00,04,5.60
2006,12,15,00,05,5.60
2006,12,15,00,06,5.70
2006,12,15,00,07,5.90
2006,12,15,00,08,6.10
2006,12,15,00,09,6.20
2006,12,15,00,10,6.30
2006,12,15,00,11,6.40
2006,12,15,00,12,6.50
2006,12,15,00,13,6.60
2006,12,15,00,14,6.70
2006,12,15,00,15,6.80
2006,12,15,00,16,6.80
2006,12,15,00,17,6.90
2006,12,15,00,18,6.90
2006,12,15,00,19,7.00
2006,12,15,00,20,7.00
2006,12,15,00,21,7.00
2006,12,15,00,22,7.10
2006,12,15,00,23,7.10
2006,12,15,00,24,7.20
2006,12,15,00,25,7.20
2006,12,15,00,26,7.20
2006,12,15,00,27,7.20
2006,12,15,00,28,7.20
2006,12,15,00,29,7.20
2006,12,15,00,30,7.30
2006,12,15,00,31,7.30
2006,12,15,00,32,7.30
2006,12,15,00,33,7.30
2006,12,15,00,34,7.30
2006,12,15,00,35,7.30
2006,12,15,00,36,7.20
2006,12,15,00,37,7.20
2006,12,15,00,38,7.20
2006,12,15,00,39,7.20
2006,12,15,00,40,7.20
2006,12,15,00,41,7.10
2006,12,15,00,42,7.10
2006,12,15,00,43,7.10
2006,12,15,00,44,7.10
2006,12,15,00,45,7.10
2006,12,15,00,46,7.10
2006,12,15,00,47,7.00
2006,12,15,00,48,7.00
2006,12,15,00,49,6.90
2006,12,15,00,50,6.80
2006,12,15,00,51,6.80
2006,12,15,00,52,6.80
2006,12,15,00,53,6.70
2006,12,15,00,54,6.70
2006,12,15,00,55,6.60
2006,12,15,00,56,6.60
2006,12,15,00,57,6.50
2006,12,15,00,58,6.40
2006,12,15,00,59,6.40
2006,12,15,01,00,6.30
2006,12,15,01,01,6.30
2006,12,15,01,02,6.20
2006,12,15,01,03,6.20
2006,12,15,01,04,6.10
2006,12,15,01,05,6.10
2006,12,15,01,06,6.10
2006,12,15,01,07,6.10
2006,12,15,01,08,6.00
2006,12,15,01,09,5.90
2006,12,15,01,10,5.90
2006,12,15,01,11,5.90
2006,12,15,01,12,5.90
2006,12,15,01,13,5.80
2006,12,15,01,14,5.80
2006,12,15,01,15,5.70
2006,12,15,01,16,5.70
2006,12,15,01,17,5.70
2006,12,15,01,18,5.70
2006,12,15,01,19,5.60
2006,12,15,01,20,5.60
2006,12,15,01,21,5.60
2006,12,15,01,22,5.70
2006,12,15,01,23,5.80
2006,12,15,01,24,5.90
2006,12,15,01,25,5.90
2006,12,15,01,26,5.90
2006,12,15,01,27,5.90
2006,12,15,01,28,5.80
2006,12,15,01,29,5.70
2006,12,15,01,30,5.60
2006,12,15,01,31,5.60
2006,12,15,01,32,5.60
2006,12,15,01,33,5.60
2006,12,15,01,34,5.60
2006,12,15,01,35,5.60
2006,12,15,01,36,5.60
2006,12,15,01,37,5.60
2006,12,15,01,38,5.60
2006,12,15,01,39,5.60
2006,12,15,01,40,5.70
2006,12,15,01,41,5.80
2006,12,15,01,42,5.90
2006,12,15,01,43,5.90
2006,12,15,01,44,5.90
2006,12,15,01,45,5.90
2006,12,15,01,46,5.90
2006,12,15,01,47,5.90
2006,12,15,01,48,6.00
2006,12,15,01,49,6.00
2006,12,15,01,50,5.90
2006,12,15,01,51,5.90
2006,12,15,01,52,5.90
2006,12,15,01,53,5.90
2006,12,15,01,54,6.00
2006,12,15,01,55,6.00
2006,12,15,01,56,6.10
2006,12,15,01,57,6.10
2006,12,15,01,58,6.10
2006,12,15,01,59,6.10
2006,12,15,02,00,6.20
2006,12,15,02,01,6.20
2006,12,15,02,02,6.20
2006,12,15,02,03,6.20
2006,12,15,02,04,6.20
2006,12,15,02,05,6.20
2006,12,15,02,06,6.20
2006,12,15,02,07,6.10
2006,12,15,02,08,6.10
2006,12,15,02,09,6.10
2006,12,15,02,10,6.20
2006,12,15,02,11,6.20
2006,12,15,02,12,6.20
2006,12,15,02,13,6.20
2006,12,15,02,14,6.20
2006,12,15,02,15,6.20
2006,12,15,02,16,6.20
2006,12,15,02,17,6.10
2006,12,15,02,18,6.10
2006,12,15,02,19,6.10
2006,12,15,02,20,6.10
2006,12,15,02,21,6.10
2006,12,15,02,22,6.20
2006,12,15,02,23,6.20
2006,12,15,02,24,6.10
2006,12,15,02,25,6.10
2006,12,15,02,26,6.10
2006,12,15,02,27,6.10
2006,12,15,02,28,6.00
2006,12,15,02,29,6.10
2006,12,15,02,30,6.10
2006,12,15,02,31,6.10
2006,12,15,02,32,6.10
2006,12,15,02,33,6.20
2006,12,15,02,34,6.10
2006,12,15,02,35,6.00
2006,12,15,02,36,6.00
2006,12,15,02,37,5.90
2006,12,15,02,38,5.90
2006,12,15,02,39,5.90
2006,12,15,02,40,5.90
2006,12,15,02,41,5.90
2006,12,15,02,42,5.90
2006,12,15,02,43,5.90
2006,12,15,02,44,5.90
2006,12,15,02,45,6.00
2006,12,15,02,46,6.00
2006,12,15,02,47,6.00
2006,12,15,02,48,5.90
2006,12,15,02,49,5.90
2006,12,15,02,50,5.90
2006,12,15,02,51,6.00
2006,12,15,02,52,6.00
2006,12,15,02,53,6.00
2006,12,15,02,54,6.10
2006,12,15,02,55,6.10
2006,12,15,02,56,6.20
2006,12,15,02,57,6.20
2006,12,15,02,58,6.20
2006,12,15,02,59,6.20
2006,12,15,03,00,6.20
2006,12,15,03,01,6.20
2006,12,15,03,02,6.20
2006,12,15,03,03,6.20
2006,12,15,03,04,6.20
2006,12,15,03,05,6.20
2006,12,15,03,06,6.10
2006,12,15,03,07,6.10
2006,12,15,03,08,6.10
2006,12,15,03,09,6.20
2006,12,15,03,10,6.20
2006,12,15,03,11,6.30
2006,12,15,03,12,6.30
2006,12,15,03,13,6.30
2006,12,15,03,14,6.30
2006,12,15,11,42,6.80
2006,12,15,11,43,6.80
2006,12,15,11,44,6.80
2006,12,15,11,45,6.80
2006,12,15,11,46,6.80
2006,12,15,11,47,6.80
2006,12,15,11,48,6.80
2006,12,15,11,49,6.80
2006,12,15,11,50,6.80
2006,12,15,11,51,6.80
2006,12,15,11,52,6.80
2006,12,15,11,53,6.90
2006,12,15,11,54,6.90
2006,12,15,11,55,6.90
2006,12,15,11,56,6.90
2006,12,15,11,57,7.00
2006,12,15,11,58,7.00
2006,12,15,11,59,7.10
2006,12,15,12,00,7.10
2006,12,15,12,01,7.10
2006,12,15,12,02,7.10
2006,12,15,12,03,7.20
2006,12,15,12,04,7.20
2006,12,15,12,05,7.20
2006,12,15,12,06,7.20
2006,12,15,12,07,7.20
2006,12,15,12,08,7.20
2006,12,15,12,09,7.20
2006,12,15,12,10,7.20
2006,12,15,12,11,7.20
2006,12,15,12,12,7.30
2006,12,15,12,13,7.30
2006,12,15,12,14,7.30
2006,12,15,12,15,7.20
2006,12,15,12,16,7.20
2006,12,15,12,17,7.20
2006,12,15,12,18,7.20
2006,12,15,12,19,7.20
2006,12,15,12,20,7.20
2006,12,15,12,21,7.20
2006,12,15,12,22,7.20
2006,12,15,12,23,7.20
2006,12,15,12,24,7.20
2006,12,15,12,25,7.20
2006,12,15,12,26,7.20
2006,12,15,12,27,7.20
2006,12,15,12,28,7.20
2006,12,15,12,29,7.20
2006,12,15,12,30,7.20
2006,12,15,12,31,7.20
2006,12,15,12,32,7.20
2006,12,15,12,33,7.20
2006,12,15,12,34,7.20
2006,12,15,12,35,7.20
2006,12,15,12,36,7.20
2006,12,15,12,37,7.20
2006,12,15,12,38,7.20
2006,12,15,12,39,7.20
2006,12,15,12,40,7.20
2006,12,15,12,41,7.10
2006,12,15,12,42,7.10
2006,12,15,12,43,7.10
2006,12,15,12,44,7.10
2006,12,15,12,45,7.10
2006,12,15,12,46,7.10
2006,12,15,12,47,7.10
2006,12,15,12,48,7.10
2006,12,15,12,49,7.10
2006,12,15,12,50,7.10
2006,12,15,12,51,7.20
2006,12,15,12,52,7.20
2006,12,15,12,53,7.20
2006,12,15,12,54,7.20
2006,12,15,12,55,7.20
2006,12,15,12,56,7.20
2006,12,15,12,57,7.20
2006,12,15,12,58,7.20
2006,12,15,12,59,7.20
2006,12,15,13,00,7.20
2006,12,15,13,01,7.20
2006,12,15,13,02,7.20
2006,12,15,13,03,7.20
2006,12,15,13,04,7.20
2006,12,15,13,05,7.20
2006,12,15,13,06,7.20
2006,12,15,13,07,7.20
2006,12,15,13,08,7.20
2006,12,15,13,09,7.20
2006,12,15,13,10,7.20
2006,12,15,13,11,7.20
2006,12,15,13,12,7.20
2006,12,15,13,13,7.20
2006,12,15,13,14,7.20
2006,12,15,13,15,7.20
2006,12,15,13,16,7.20
2006,12,15,13,17,7.20
2006,12,15,13,18,7.20
2006,12,15,13,19,7.20
2006,12,15,13,20,7.20
2006,12,15,13,21,7.20
2006,12,15,13,22,7.20
2006,12,15,13,23,7.20
2006,12,15,13,24,7.20
2006,12,15,13,25,7.20
2006,12,15,13,26,7.20
2006,12,15,13,27,7.20
2006,12,15,13,28,7.20
2006,12,15,13,29,7.20
2006,12,15,13,30,7.20
2006,12,15,13,31,7.20
2006,12,15,13,32,7.20
2006,12,15,13,33,7.10
2006,12,15,13,34,7.00
2006,12,15,13,35,7.00
2006,12,15,13,36,7.00
2006,12,15,13,37,7.00
2006,12,15,13,38,7.00
2006,12,15,13,39,6.90
2006,12,15,13,40,6.90
2006,12,15,13,41,6.90
2006,12,15,13,42,6.90
2006,12,15,13,43,6.90
2006,12,15,13,44,6.90
2006,12,15,13,45,6.80
2006,12,15,13,46,6.80
2006,12,15,13,47,6.80
2006,12,15,13,48,6.80
2006,12,15,13,49,6.80
2006,12,15,13,50,6.80
2006,12,15,13,51,6.80
2006,12,15,13,52,6.80
2006,12,15,13,53,6.80
2006,12,15,13,54,6.80
2006,12,15,13,55,6.80
2006,12,15,13,56,6.70
2006,12,15,13,57,6.60
2006,12,15,13,58,6.50
2006,12,15,13,59,6.50
2006,12,15,14,00,6.40
2006,12,15,14,01,6.30
2006,12,15,14,02,6.30
2006,12,15,14,03,6.20
2006,12,15,14,04,6.20
2006,12,15,14,05,6.20
2006,12,15,14,06,6.20
2006,12,15,14,07,6.10
2006,12,15,14,08,6.10
2006,12,15,14,09,6.10
2006,12,15,14,10,6.10
2006,12,15,14,11,6.10
2006,12,15,14,12,6.10
2006,12,15,14,13,6.00
2006,12,15,14,14,6.00
2006,12,15,14,15,6.00
2006,12,15,14,16,5.90
2006,12,15,14,17,5.90
2006,12,15,14,18,5.90
2006,12,15,14,19,5.80
2006,12,15,14,20,5.80
2006,12,15,14,21,5.80
2006,12,15,14,22,5.70
2006,12,15,14,23,5.70
2006,12,15,14,24,5.70
2006,12,15,14,25,5.60
2006,12,15,14,26,5.60
2006,12,15,14,27,5.60
2006,12,15,14,28,5.60
2006,12,15,14,29,5.60
2006,12,15,14,30,5.50
2006,12,15,14,31,5.50
2006,12,15,14,32,5.40
2006,12,15,14,33,5.40
2006,12,15,14,34,5.40
2006,12,15,14,35,5.30
2006,12,15,14,36,5.30
2006,12,15,14,37,5.30
2006,12,15,14,38,5.30
2006,12,15,14,39,5.20
2006,12,15,14,40,5.20
2006,12,15,14,41,5.10
2006,12,15,14,42,5.10
2006,12,15,14,43,5.10
2006,12,15,14,44,5.00
2006,12,15,14,45,5.00
2006,12,15,14,46,4.90
2006,12,15,14,47,4.90
2006,12,15,14,48,4.90
2006,12,15,14,49,4.80
2006,12,15,14,50,4.80
2006,12,15,14,51,4.80
2006,12,15,14,52,4.80
2006,12,15,14,53,4.80
2006,12,15,14,54,4.70
2006,12,15,14,55,4.70
2006,12,15,14,56,4.70
2006,12,15,14,57,4.70
2006,12,15,14,58,4.70
2006,12,15,14,59,4.60
2006,12,15,15,00,4.60
2006,12,15,15,01,4.60
2006,12,15,15,02,4.60
2006,12,15,15,03,4.60
2006,12,15,15,04,4.60
2006,12,15,15,05,4.60
2006,12,15,15,06,4.60
2006,12,15,15,07,4.50
2006,12,15,15,08,4.50
2006,12,15,15,09,4.50
2006,12,15,15,10,4.40
2006,12,15,15,11,4.40
2006,12,15,15,12,4.40
2006,12,15,15,13,4.40
2006,12,15,15,14,4.40
2006,12,15,15,15,4.40
2006,12,15,15,16,4.40
2006,12,15,15,17,4.40
2006,12,15,15,18,4.40
2006,12,15,15,19,4.40
2006,12,15,15,20,4.30
2006,12,15,15,21,4.30
2006,12,15,15,22,4.30
2006,12,15,15,23,4.20
2006,12,15,15,24,4.20
2006,12,15,15,25,4.10
2006,12,15,15,26,4.10
2006,12,15,15,27,4.10
2006,12,15,15,28,4.00
2006,12,15,15,29,4.00
2006,12,15,15,30,4.00
2006,12,15,15,31,3.90
2006,12,15,15,32,3.90
2006,12,15,15,33,3.80
2006,12,15,15,34,3.80
2006,12,15,15,35,3.80
2006,12,15,15,36,3.80
2006,12,15,15,37,3.80
2006,12,15,15,38,3.80
2006,12,15,15,39,3.80
2006,12,15,15,40,3.80
2006,12,15,15,41,3.70
2006,12,15,15,42,3.70
2006,12,15,15,43,3.70
2006,12,15,15,44,3.70
2006,12,15,15,45,3.60
2006,12,15,15,46,3.60
2006,12,15,15,47,3.60
2006,12,15,15,48,3.70
2006,12,15,15,49,3.90
2006,12,15,15,50,4.00
2006,12,15,15,51,4.10
2006,12,15,15,52,4.20
2006,12,15,15,53,4.20
2006,12,15,15,54,4.20
2006,12,15,15,55,4.30
2006,12,15,15,56,4.40
2006,12,15,15,57,4.40
2006,12,15,15,58,4.40
2006,12,15,15,59,4.40
2006,12,15,16,00,4.40
2006,12,15,16,01,4.40
2006,12,15,16,02,4.40
2006,12,15,16,03,4.30
2006,12,15,16,04,4.30
2006,12,15,16,05,4.30
2006,12,15,16,06,4.30
2006,12,15,16,07,4.30
2006,12,15,16,08,4.30
2006,12,15,16,09,4.30
2006,12,15,16,10,4.20
2006,12,15,16,11,4.20
2006,12,15,16,12,4.10
2006,12,15,16,13,4.10
2006,12,15,16,14,4.10
2006,12,15,16,15,4.00
2006,12,15,16,16,4.00
2006,12,15,16,17,3.90
2006,12,15,16,18,3.90
2006,12,15,16,19,3.90
2006,12,15,16,20,3.90
2006,12,15,16,21,3.80
2006,12,15,16,22,3.80
2006,12,15,16,23,3.80
2006,12,15,16,24,3.80
2006,12,15,16,25,3.70
2006,12,15,16,26,3.70
2006,12,15,16,27,3.70
2006,12,15,16,28,3.70
2006,12,15,16,29,3.70
2006,12,15,16,30,3.70
2006,12,15,16,31,3.70
2006,12,15,16,32,3.70
2006,12,15,16,33,3.70
2006,12,15,16,34,3.70
2006,12,15,16,35,3.60
2006,12,15,16,36,3.60
2006,12,15,16,37,3.60
2006,12,15,16,38,3.60
2006,12,15,16,39,3.60
2006,12,15,16,40,3.60
2006,12,15,16,41,3.60
2006,12,15,16,42,3.60
2006,12,15,16,43,3.60
2006,12,15,16,44,3.50
2006,12,15,16,45,3.50
2006,12,15,16,46,3.50
2006,12,15,16,47,3.50
2006,12,15,16,48,3.50
2006,12,15,16,49,3.50
2006,12,15,16,50,3.50
2006,12,15,16,51,3.50
2006,12,15,16,52,3.50
2006,12,15,16,53,3.40
2006,12,15,16,54,3.40
2006,12,15,16,55,3.40
2006,12,15,16,56,3.40
2006,12,15,16,57,3.40
2006,12,15,16,58,3.40
2006,12,15,16,59,3.40
2006,12,15,17,00,3.40
2006,12,15,17,01,3.40
2006,12,15,17,02,3.40
2006,12,15,17,03,3.30
2006,12,15,17,04,3.30
2006,12,15,17,05,3.30
2006,12,15,17,06,3.20
2006,12,15,17,07,3.10
2006,12,15,17,08,3.10
2006,12,15,17,09,3.00
2006,12,15,17,10,3.00
2006,12,15,17,11,3.00
2006,12,15,17,12,2.90
2006,12,15,17,13,2.90
2006,12,15,17,14,2.90
2006,12,15,17,15,2.80
2006,12,15,17,16,2.80
2006,12,15,17,17,2.80
2006,12,15,17,18,2.80
2006,12,15,17,19,2.80
2006,12,15,17,20,2.80
2006,12,15,17,21,2.70
2006,12,15,17,22,2.70
2006,12,15,17,23,2.70
2006,12,15,17,24,2.60
2006,12,15,17,25,2.60
2006,12,15,17,26,2.60
2006,12,15,17,27,2.60
2006,12,15,17,28,2.50
2006,12,15,17,29,2.50
2006,12,15,17,30,2.50
2006,12,15,17,31,2.40
2006,12,15,17,32,2.40
2006,12,15,17,33,2.30
2006,12,15,17,34,2.30
2006,12,15,17,35,2.30
2006,12,15,17,36,2.30
2006,12,15,17,37,2.20
2006,12,15,17,38,2.20
2006,12,15,17,39,2.20
2006,12,15,17,40,2.20
2006,12,15,17,41,2.10
2006,12,15,17,42,2.10
2006,12,15,17,43,2.10
2006,12,15,17,44,2.10
2006,12,15,17,45,2.10
2006,12,15,17,46,2.10
2006,12,15,17,47,2.00
2006,12,15,17,48,2.00
2006,12,15,17,49,1.90
2006,12,15,17,50,1.90
2006,12,15,17,51,1.90
2006,12,15,17,52,1.90
2006,12,15,17,53,1.80
2006,12,15,17,54,1.80
2006,12,15,17,55,1.80
2006,12,15,17,56,1.80
2006,12,15,17,57,1.80
2006,12,15,17,58,1.70
2006,12,15,17,59,1.70
2006,12,15,18,00,1.70
2006,12,15,18,01,1.70
2006,12,15,18,02,1.60
2006,12,15,18,03,1.60
2006,12,15,18,04,1.60
2006,12,15,18,05,1.50
2006,12,15,18,06,1.50
2006,12,15,18,07,1.50
2006,12,15,18,08,1.40
2006,12,15,18,09,1.40
2006,12,15,18,10,1.40
2006,12,15,18,11,1.30
2006,12,15,18,12,1.30
2006,12,15,18,13,1.30
2006,12,15,18,14,1.30
2006,12,15,18,15,1.30
2006,12,15,18,16,1.30
2006,12,15,18,17,1.30
2006,12,15,18,18,1.30
2006,12,15,18,19,1.30
2006,12,15,18,20,1.30
2006,12,15,18,21,1.30
2006,12,15,18,22,1.30
2006,12,15,18,23,1.30
2006,12,15,18,24,1.30
2006,12,15,18,25,1.30
2006,12,15,18,26,1.30
2006,12,15,18,27,1.30
2006,12,15,18,28,1.30
2006,12,15,18,29,1.20
2006,12,15,18,30,1.20
2006,12,15,18,31,1.20
2006,12,15,18,32,1.20
2006,12,15,18,33,1.20
2006,12,15,18,34,1.20
2006,12,15,18,35,1.20
2006,12,15,18,36,1.20
2006,12,15,18,37,1.20
2006,12,15,18,38,1.10
2006,12,15,18,39,1.10
2006,12,15,18,40,1.10
2006,12,15,18,41,1.10
2006,12,15,18,42,1.10
2006,12,15,18,43,1.10
2006,12,15,18,44,1.10
2006,12,15,18,45,1.00
2006,12,15,18,46,1.00
2006,12,15,18,47,1.00
2006,12,15,18,48,1.00
2006,12,15,18,49,0.90
2006,12,15,18,50,0.90
2006,12,15,18,51,0.90
2006,12,15,18,52,0.90
2006,12,15,18,53,0.90
2006,12,15,18,54,0.80
2006,12,15,18,55,0.80
2006,12,15,18,56,0.80
2006,12,15,18,57,0.80
2006,12,15,18,58,0.80
2006,12,15,18,59,0.80
2006,12,15,19,00,0.80
2006,12,15,19,01,0.80
2006,12,15,19,02,0.90
2006,12,15,19,03,0.90
2006,12,15,19,04,0.90
2006,12,15,19,05,0.90
2006,12,15,19,06,0.90
2006,12,15,19,07,0.90
2006,12,15,19,08,0.90
2006,12,15,19,09,0.90
2006,12,15,19,10,0.90
2006,12,15,19,11,0.90
2006,12,15,19,12,0.80
2006,12,15,19,13,0.80
2006,12,15,19,14,0.80
2006,12,15,19,15,0.80
2006,12,15,19,16,0.80
2006,12,15,19,17,0.70
2006,12,15,19,18,0.70
2006,12,15,19,19,0.70
2006,12,15,19,20,0.70
2006,12,15,19,21,0.70
2006,12,15,19,22,0.70
2006,12,15,19,23,0.70
2006,12,15,19,24,0.70
2006,12,15,19,25,0.60
2006,12,15,19,26,0.60
2006,12,15,19,27,0.60
2006,12,15,19,28,0.60
2006,12,15,19,29,0.60
2006,12,15,19,30,0.70
2006,12,15,19,31,0.70
2006,12,15,19,32,0.70
2006,12,15,19,33,0.70
2006,12,15,19,34,0.70
2006,12,15,19,35,0.70
2006,12,15,19,36,0.80
2006,12,15,19,37,0.80
2006,12,15,19,38,0.80
2006,12,15,19,39,0.80
2006,12,15,19,40,0.80
2006,12,15,19,41,0.80
2006,12,15,19,42,0.80
2006,12,15,19,43,0.80
2006,12,15,19,44,0.80
2006,12,15,19,45,0.80
2006,12,15,19,46,0.80
2006,12,15,19,47,0.80
2006,12,15,19,48,0.80
2006,12,15,19,49,0.70
2006,12,15,19,50,0.70
2006,12,15,19,51,0.70
2006,12,15,19,52,0.70
2006,12,15,19,53,0.70
2006,12,15,19,54,0.70
2006,12,15,19,55,0.70
2006,12,15,19,56,0.70
2006,12,15,19,57,0.70
2006,12,15,19,58,0.70
2006,12,15,19,59,0.70
2006,12,15,20,00,0.70
2006,12,15,20,01,0.80
2006,12,15,20,02,0.80
2006,12,15,20,03,0.90
2006,12,15,20,04,1.00
2006,12,15,20,05,1.10
2006,12,15,20,06,1.20
2006,12,15,20,07,1.30
2006,12,15,20,08,1.30
2006,12,15,20,09,1.40
2006,12,15,20,10,1.50
2006,12,15,20,11,1.50
2006,12,15,20,12,1.60
2006,12,15,20,13,1.80
2006,12,15,20,14,1.90
2006,12,15,20,15,2.00
2006,12,15,20,16,2.10
2006,12,15,20,17,2.20
2006,12,15,20,18,2.30
2006,12,15,20,19,2.40
2006,12,15,20,20,2.40
2006,12,15,20,21,2.40
2006,12,15,20,22,2.30
2006,12,15,20,23,2.30
2006,12,15,20,24,2.30
2006,12,15,20,25,2.30
2006,12,15,20,26,2.30
2006,12,15,20,27,2.20
2006,12,15,20,28,2.20
2006,12,15,20,29,2.20
2006,12,15,20,30,2.20
2006,12,15,20,31,2.20
2006,12,15,20,32,2.20
2006,12,15,20,33,2.20
2006,12,15,20,34,2.20
2006,12,15,20,35,2.20
2006,12,15,20,36,2.20
2006,12,15,20,37,2.20
2006,12,15,20,38,2.10
2006,12,15,20,39,2.10
2006,12,15,20,40,2.10
2006,12,15,20,41,2.10
2006,12,15,20,42,2.10
2006,12,15,20,43,2.10
2006,12,15,20,44,2.10
2006,12,15,20,45,2.20
2006,12,15,20,46,2.20
2006,12,15,20,47,2.20
2006,12,15,20,48,2.20
2006,12,15,20,49,2.30
2006,12,15,20,50,2.30
2006,12,15,20,51,2.30
2006,12,15,20,52,2.40
2006,12,15,20,53,2.40
2006,12,15,20,54,2.50
2006,12,15,20,55,2.50
2006,12,15,20,56,2.50
2006,12,15,20,57,2.60
2006,12,15,20,58,2.60
2006,12,15,20,59,2.60
2006,12,15,21,00,2.60
2006,12,15,21,01,2.60
2006,12,15,21,02,2.60
2006,12,15,21,03,2.60
2006,12,15,21,04,2.50
2006,12,15,21,05,2.50
2006,12,15,21,06,2.50
2006,12,15,21,07,2.40
2006,12,15,21,08,2.40
2006,12,15,21,09,2.40
2006,12,15,21,10,2.40
2006,12,15,21,11,2.40
2006,12,15,21,12,2.40
2006,12,15,21,13,2.40
2006,12,15,21,14,2.40
2006,12,15,21,15,2.40
2006,12,15,21,16,2.40
2006,12,15,21,17,2.40
2006,12,15,21,18,2.30
2006,12,15,21,19,2.30
2006,12,15,21,20,2.30
2006,12,15,21,21,2.30
2006,12,15,21,22,2.30
2006,12,15,21,23,2.30
2006,12,15,21,24,2.30
2006,12,15,21,25,2.30
2006,12,15,21,26,2.30
2006,12,15,21,27,2.30
2006,12,15,21,28,2.30
2006,12,15,21,29,2.30
2006,12,15,21,30,2.20
2006,12,15,21,31,2.20
2006,12,15,21,32,2.20
2006,12,15,21,33,2.20
2006,12,15,21,34,2.20
2006,12,15,21,35,2.20
2006,12,15,21,36,2.20
2006,12,15,21,37,2.20
2006,12,15,21,38,2.30
2006,12,15,21,39,2.30
2006,12,15,21,40,2.40
2006,12,15,21,41,2.50
2006,12,15,21,42,2.50
2006,12,15,21,43,2.60
2006,12,15,21,44,2.70
2006,12,15,21,45,2.70
2006,12,15,21,46,2.70
2006,12,15,21,47,2.70
2006,12,15,21,48,2.80
2006,12,15,21,49,2.80
2006,12,15,21,50,2.80
2006,12,15,21,51,2.80
2006,12,15,21,52,2.80
2006,12,15,21,53,2.80
2006,12,15,21,54,2.80
2006,12,15,21,55,2.80
2006,12,15,21,56,2.80
2006,12,15,21,57,2.90
2006,12,15,21,58,2.80
2006,12,15,21,59,2.90
2006,12,15,22,00,2.90
2006,12,15,22,01,2.90
2006,12,15,22,02,2.90
2006,12,15,22,03,2.90
2006,12,15,22,04,2.80
2006,12,15,22,05,2.80
2006,12,15,22,06,2.80
2006,12,15,22,07,2.80
2006,12,15,22,08,2.80
2006,12,15,22,09,2.80
2006,12,15,22,10,2.80
2006,12,15,22,11,2.80
2006,12,15,22,12,2.80
2006,12,15,22,13,2.80
2006,12,15,22,14,2.70
2006,12,15,22,15,2.70
2006,12,15,22,16,2.70
2006,12,15,22,17,2.70
2006,12,15,22,18,2.70
2006,12,15,22,19,2.70
2006,12,15,22,20,2.70
2006,12,15,22,21,2.70
2006,12,15,22,22,2.70
2006,12,15,22,23,2.70
2006,12,15,22,24,2.70
2006,12,15,22,25,2.70
2006,12,15,22,26,2.70
2006,12,15,22,27,2.70
2006,12,15,22,28,2.70
2006,12,15,22,29,2.80
2006,12,15,22,30,2.80
2006,12,15,22,31,2.80
2006,12,15,22,32,2.80
2006,12,15,22,33,2.80
2006,12,15,22,34,2.80
2006,12,15,22,35,2.80
2006,12,15,22,36,2.80
2006,12,15,22,37,2.80
2006,12,15,22,38,2.80
2006,12,15,22,39,2.80
2006,12,15,22,40,2.80
2006,12,15,22,41,2.80
2006,12,15,22,42,2.70
2006,12,15,22,43,2.70
2006,12,15,22,44,2.70
2006,12,15,22,45,2.70
2006,12,15,22,46,2.70
2006,12,15,22,47,2.70
2006,12,15,22,48,2.70
2006,12,15,22,49,2.70
2006,12,15,22,50,2.70
2006,12,15,22,51,2.70
2006,12,15,22,52,2.70
2006,12,15,22,53,2.70
2006,12,15,22,54,2.70
2006,12,15,22,55,2.70
2006,12,15,22,56,2.70
2006,12,15,22,57,2.70
2006,12,15,22,58,2.60
2006,12,15,22,59,2.70
2006,12,15,23,00,2.60
2006,12,15,23,01,2.60
2006,12,15,23,02,2.60
2006,12,15,23,03,2.60
2006,12,15,23,04,2.60
2006,12,15,23,05,2.60
2006,12,15,23,06,2.60
2006,12,15,23,07,2.70
2006,12,15,23,08,2.70
2006,12,15,23,09,2.70
2006,12,15,23,10,2.70
2006,12,15,23,11,2.70
2006,12,15,23,12,2.70
2006,12,15,23,13,2.70
2006,12,15,23,14,2.70
2006,12,15,23,15,2.70
2006,12,15,23,16,2.70
2006,12,15,23,17,2.70
2006,12,15,23,18,2.70
2006,12,15,23,19,2.70
2006,12,15,23,20,2.70
2006,12,15,23,21,2.70
2006,12,15,23,22,2.70
2006,12,15,23,23,2.70
2006,12,15,23,24,2.70
2006,12,15,23,25,2.70
2006,12,15,23,26,2.70
2006,12,15,23,27,2.70
2006,12,15,23,28,2.70
2006,12,15,23,29,2.70
2006,12,15,23,30,2.70
2006,12,15,23,31,2.70
2006,12,15,23,32,2.70
2006,12,15,23,33,2.70
2006,12,15,23,34,2.70
2006,12,15,23,35,2.70
2006,12,15,23,36,2.70
2006,12,15,23,37,2.70
2006,12,15,23,38,2.70
2006,12,15,23,39,2.60
2006,12,15,23,40,2.60
2006,12,15,23,41,2.60
2006,12,15,23,42,2.60
2006,12,15,23,43,2.60
2006,12,15,23,44,2.60
2006,12,15,23,45,2.60
2006,12,15,23,46,2.60
2006,12,15,23,47,2.60
2006,12,15,23,48,2.60
2006,12,15,23,49,2.60
2006,12,15,23,50,2.60
2006,12,15,23,51,2.60
2006,12,15,23,52,2.60
2006,12,15,23,53,2.60
2006,12,15,23,54,2.60
2006,12,15,23,55,2.50
2006,12,15,23,56,2.50
2006,12,15,23,57,2.50
2006,12,15,23,58,2.50
2006,12,15,23,59,2.50
